Location: ????????
(55.8351°N, 38.7040°E)
Time: 05:47:47
(UTC+00:00)

Cosmos 2333 Rocket - Pass Details

Date: 03 August 2024
Orbit: 841 x 861 km, 70.8° (Epoch: 10 July)

Event Time Altitude Azimuth Distance (km) Brightness Sun altitude
Exits shadow 23:16:03 13° 171° (S) 2,246 3.9 -13.7°
Maximum altitude 23:20:32 37° 110° (ESE) 1,314 3.3 -13.5°
Drops below altitude 10° 23:25:45 10° 45° (NE) 2,508 5.9 -13.1°
Sets 23:28:23 0° 37° (NE) 3,450 7.3 -12.9°
